This is the latest recevied weather packets stored in our database for station/object K1BES. If no packets are shown the sender has not sent any weather packets the latest 10 day(s).
| Time | Temp. | Humidity | Pressure | Rain* | Wind** | Luminosity | Snow |
|---|---|---|---|---|---|---|---|
| 1777382613 | 25° C | 75% | 1021.4 hPa | 0 mm | - | 392 W/m² | - |
| 1777382309 | 25° C | 75% | 1021.7 hPa | 0 mm | - | 371 W/m² | - |
| 1777382006 | 25° C | 75% | 1021.3 hPa | 0 mm | - | 349 W/m² | - |
| 1777381700 | 25° C | 77% | 1021.4 hPa | 0 mm | - | 326 W/m² | - |
| 1777381396 | 24.44° C | 78% | 1021.4 hPa | 0 mm | - | 306 W/m² | - |
| 1777381093 | 23.89° C | 80% | 1021.4 hPa | 0 mm | - | 287 W/m² | - |
| 1777380789 | 23.89° C | 79% | 1021.3 hPa | 0 mm | - | 267 W/m² | - |
| 1777380486 | 23.33° C | 80% | 1021.2 hPa | 0 mm | - | 205 W/m² | - |
| 1777380183 | 22.78° C | 82% | 1021.2 hPa | 0 mm | - | 229 W/m² | - |
| 1777379879 | 22.78° C | 84% | 1021.3 hPa | 0 mm | - | 210 W/m² | - |
| 1777379574 | 22.22° C | 85% | 1021.3 hPa | 0 mm | - | 190 W/m² | - |
| 1777379270 | 22.22° C | 86% | 1021 hPa | 0 mm | - | 172 W/m² | - |
| 1777378965 | 21.67° C | 87% | 1020.8 hPa | 0 mm | - | 155 W/m² | - |
| 1777378661 | 21.11° C | 89% | 1020.8 hPa | 0 mm | - | 135 W/m² | - |
| 1777378358 | 20.56° C | 91% | 1020.8 hPa | 0 mm | - | 106 W/m² | - |
| 1777378058 | 20.56° C | 93% | 1021 hPa | 0 mm | - | 81 W/m² | - |
| 1777377752 | 20° C | 94% | 1020.9 hPa | 0 mm | - | 66 W/m² | - |
| 1777377447 | 20° C | 94% | 1020.8 hPa | 0 mm | - | 43 W/m² | - |
| 1777377143 | 19.44° C | 95% | 1020.9 hPa | 0 mm | - | 35 W/m² | - |
| 1777376840 | 19.44° C | 95% | 1020.9 hPa | 0 mm | - | 33 W/m² | - |
| 1777376537 | 19.44° C | 95% | 1020.7 hPa | 0 mm | - | 30 W/m² | - |
| 1777376233 | 19.44° C | 95% | 1020.6 hPa | 0 mm | - | 27 W/m² | - |
| 1777375928 | 19.44° C | 95% | 1020.4 hPa | 0 mm | - | 25 W/m² | - |
| 1777375622 | 19.44° C | 95% | 1020.6 hPa | 0 mm | - | 22 W/m² | - |
| 1777375317 | 18.89° C | 95% | 1020.5 hPa | 0 mm | - | 19 W/m² | - |
* Rain latest hour (hover to see other rain measurements)
** Current wind speed in m/s (hover to see current wind gust speed)